| time (UTC) | temp C | wind direction | speed KPH | gust KPH | rain 1hr cm | rain 24hr cm | rain mn cm | humidity % | barometer mb |
| 20260505224004 | -17 | 264 | 1.6 | 1.6 | 0.00 | 0.00 | 0.00 | ||
| 20260505203502 | -17 | 168 | 3.2 | 0.0 | 0.00 | 0.00 | 0.00 | ||
| 20260505202757 | 28 | 256 | 3.2 | 8.0 | 0.00 | 0.00 | 0.00 | 76 | 1006.0 |
| 20260505202155 | -17 | 264 | 3.2 | 3.2 | 0.00 | 0.00 | 0.00 | ||
| 20260505192142 | -17 | 168 | 4.8 | 4.8 | 0.00 | 0.00 | 0.00 | ||
| 20260505172511 | -17 | 0.0 | 0.0 | 0.00 | 0.00 | 0.00 | |||
| 20260505153139 | -17 | 242 | 0.0 | 0.0 | 0.00 | 0.00 | 0.00 | ||
| 20260505110740 | -17 | 240 | 0.0 | 0.0 | 0.00 | 0.00 | 0.00 | ||
| 20260505092638 | -17 | 207 | 1.6 | 1.6 | 0.00 | 0.00 | 0.00 | ||
| 20260505075715 | -17 | 209 | 0.0 | 3.2 | 0.00 | 0.00 | 0.00 | ||
| 20260505075214 | -17 | 0 | 0.0 | 0.0 | 0.00 | 0.00 | 0.00 | ||
| 20260505065757 | -17 | 155 | 4.8 | 4.8 | 0.00 | 0.00 | 0.00 | ||
| 20260505064838 | -17 | 232 | 0.0 | 0.0 | 0.00 | 0.00 | 0.00 | ||
| 20260505052448 | 21 | 233 | 1.6 | 3.2 | 0.00 | 0.00 | 0.00 | 84 | 1008.4 |
| 20260505051239 | -17 | 185 | 1.6 | 1.6 | 0.00 | 0.00 | 0.00 | ||
| 20260505050409 | 22 | 185 | 1.6 | 3.2 | 0.00 | 0.00 | 0.00 | 82 | 1008.5 |
| 20260505015552 | 23 | 208 | 4.8 | 11.3 | 0.00 | 0.00 | 0.00 | 76 | 1008.6 |
| 20260505014406 | -17 | 0.0 | 0.0 | 0.00 | 0.00 | 0.00 | |||
| 20260505005620 | -17 | 0.0 | 0.0 | 0.00 | 0.00 | 0.00 | |||
| 20260505005342 | -17 | 155 | 1.6 | 1.6 | 0.00 | 0.00 | 0.00 | ||
| 20260505004309 | -17 | 0.0 | 0.0 | 0.00 | 0.00 | 0.00 |